RH
77 70 59 70 85 62 66 70 73 77 78 81 82 84 88 87 86 87 86 82 82 78 73 77 74 71 73 78 81 87 88 83 73 66 56 57 59 58 64 57 43 82 49
86 86 58 80 89 62 68 78 80 86 89 90 93 89 90 87 84 75 79 70 61 54 49 43 46 48 56 68 77 77 78 79 80 75 70 63 63 71 75 76 54 46 50
94 94 68 89 90 62 69 80 85 84 73 72 62 58 53 47 43 40 35 30 22 16 14 14 15 16 19 23 32 40 49 70 81 82 82 99 97 78 74 81 82 76 58
96 94 90 90 83 62 74 86 81 71 56 43 34 29 22 16 12 11 10 9 10 11 12 12 12 12 12 13 13 13 15 22 36 59 90 95 99 78 74 72 79 82 83
97 100 89 89 64 72 89 86 72 53 37 26 19 13 10 9 10 11 12 12 11 11 11 11 11 11 11 11 11 12 12 14 14 18 29 54 71 84 76 74 75 85 81
100 97 88 83 74 92 89 82 61 42 24 15 10 10 10 11 12 12 11 11 12 12 12 12 12 12 12 11 11 11 11 12 14 15 16 21 43 62 69 66 69 70 91
99 96 90 75 89 98 89 73 54 26 14 10 10 10 11 11 11 12 12 13 13 13 12 12 11 10 10 9 9 9 10 11 69 78 62 35 47 54 59 66 70 69 87
95 94 91 86 94 88 82 68 37 15 10 10 11 11 11 11 12 13 13 14 14 13 11 10 9 8 8 7 8 8 9 15 80 84 84 93 68 66 79 80 81 79 91
97 92 91 95 77 87 73 55 20 12 10 11 12 11 12 13 14 14 15 15 13 11 10 9 8 8 8 9 12 13 19 28 83 85 85 96 82 80 74 75 74 77 79
95 93 96 89 87 81 68 37 14 11 11 12 11 12 13 14 15 16 16 14 12 10 9 8 9 8 10 12 16 22 24 56 80 86 93 97 85 88 92 88 86 86 81
98 97 93 90 89 78 64 21 12 11 12 12 12 14 14 15 17 17 15 13 11 9 9 9 9 10 12 15 18 25 57 76 74 80 87 75 78 84 80 82 87 78 67
99 100 100 96 90 75 49 15 13 12 13 13 15 15 16 18 18 18 15 12 11 10 10 12 12 12 13 32 39 54 80 79 80 79 40 41 55 72 78 72 69 73 83
100 97 99 99 89 71 31 14 13 14 13 14 16 16 18 19 19 18 14 12 11 13 16 17 17 16 16 28 58 81 83 80 77 75 24 36 87 92 87 86 85 88 90
99 99 100 98 81 58 20 15 15 14 13 15 15 17 19 21 20 16 13 12 14 18 19 20 20 20 20 23 56 66 75 76 78 76 28 31 69 89 86 86 85 88 97
99 98 99 91 69 40 18 16 15 15 14 15 16 18 20 22 20 15 13 14 18 20 21 22 23 23 23 29 35 56 66 60 42 38 34 24 26 32 46 62 82 88 84
99 100 93 82 56 30 19 17 16 16 16 17 17 19 21 23 18 14 16 18 20 21 22 23 25 24 25 48 37 41 48 46 43 36 34 30 27 24 21 20 21 22 20
99 90 80 86 55 30 22 21 17 16 18 18 18 20 21 23 17 16 18 20 22 23 23 24 24 25 26 28 43 37 43 50 49 48 41 38 36 33 31 28 26 23 19
100 86 89 89 62 28 23 22 19 18 20 21 20 20 23 20 17 18 20 22 24 24 24 26 26 27 28 28 35 38 41 44 50 56 54 44 41 40 38 35 33 31 28
98 90 86 89 58 28 22 22 21 21 22 22 22 22 24 19 19 21 23 24 25 26 26 27 28 29 29 30 30 32 34 43 52 57 59 52 46 48 44 41 40 38 37
97 88 89 85 46 27 24 24 22 24 25 24 23 24 23 19 21 24 26 26 26 27 28 29 30 30 31 31 30 30 32 37 48 54 58 58 54 51 50 48 47 45 42
95 92 88 73 42 26 23 24 24 25 26 26 25 27 23 19 22 27 27 27 28 29 30 30 32 32 32 32 32 37 34 35 41 53 51 55 52 52 55 53 52 49 46
99 95 91 67 37 26 24 23 24 26 28 27 27 28 24 22 24 28 27 28 28 29 30 31 31 32 31 33 38 38 49 54 54 40 38 48 52 53 54 53 55 49 46
99 95 87 57 37 28 26 25 25 27 29 28 29 28 24 23 26 30 28 28 29 29 28 28 28 30 34 35 39 42 51 45 50 46 39 41 46 50 48 51 50 48 47
96 98 89 77 42 32 27 27 26 28 30 30 32 30 25 26 25 32 28 28 30 29 27 26 27 29 33 40 39 42 45 48 56 51 56 46 46 47 50 51 50 50 49
91 96 93 95 55 37 30 30 33 32 31 33 34 31 29 29 31 34 30 30 31 30 28 27 28 29 32 39 46 51 51 53 56 64 59 58 67 64 58 55 56 57 55
87 91 92 87 64 44 36 33 34 37 35 36 36 35 33 32 36 36 32 32 32 31 28 29 30 31 32 35 42 49 58 70 67 71 68 66 68 71 64 60 59 59 58
Wind_Speed
23 24 21 21 17 14 14 13 12 11 9 8 7 7 7 7 6 5 4 3 3 2 2 2 3 2 2 2 1 3 4 5 4 4 5 5 5 5 5 7 7 4 4
27 24 22 21 18 14 14 13 11 11 11 11 10 9 6 4 2 1 2 4 5 6 6 7 7 7 6 5 5 4 4 4 5 4 3 3 3 4 4 6 6 5 4
27 24 23 21 19 15 14 13 12 10 8 6 4 3 2 3 3 3 4 4 4 4 4 5 5 6 7 7 8 9 9 7 6 5 4 3 3 3 5 5 4 5 5
26 23 22 21 17 15 14 12 10 7 5 3 3 2 1 1 1 1 2 2 3 3 3 4 4 5 6 6 7 8 9 10 10 8 4 4 3 5 5 5 5 6 5
25 23 24 20 16 16 15 11 8 5 4 3 2 1 0 1 1 2 2 2 3 4 5 5 5 5 6 6 6 6 7 8 9 9 8 9 7 6 7 8 7 8 7
24 23 22 18 16 15 13 9 6 4 3 2 1 2 2 2 3 3 4 4 5 5 6 6 6 6 6 6 6 6 6 6 6 6 6 6 6 7 7 9 9 9 8
24 23 21 18 17 15 12 8 5 4 2 2 2 3 3 4 4 4 5 5 6 6 6 7 7 7 7 6 6 6 5 5 8 9 7 4 1 3 5 7 7 8 7
26 23 22 21 17 14 10 7 5 3 3 3 3 4 4 4 4 4 5 6 6 7 7 7 7 7 7 7 6 5 5 6 9 11 11 8 5 1 2 4 4 5 4
24 25 24 21 17 13 10 7 5 4 4 4 4 4 4 4 4 5 5 6 6 7 7 7 8 8 8 8 9 9 8 9 10 10 9 6 2 2 3 4 6 6 7
28 27 25 20 18 15 11 8 6 5 4 4 4 4 4 4 5 5 6 7 7 8 8 9 10 10 10 10 10 9 10 12 9 9 6 7 4 4 4 3 2 4 6
31 28 24 21 19 15 12 9 7 6 5 5 5 5 5 5 6 6 7 8 8 9 10 11 11 11 11 10 10 10 12 9 8 8 5 3 2 2 4 3 5 8 11
31 28 23 22 19 15 12 10 9 8 7 6 6 5 5 5 5 6 7 8 9 10 11 11 11 11 11 9 9 10 9 9 9 9 6 2 2 6 6 5 5 5 5
30 27 24 22 19 15 13 12 10 9 8 7 6 5 5 5 6 6 7 8 9 10 11 11 11 10 10 9 8 8 8 8 8 9 8 5 8 4 3 3 1 2 3
30 25 24 21 18 16 14 12 11 10 8 7 6 5 5 5 5 6 6 7 9 10 10 10 10 10 10 9 8 8 8 8 8 8 8 5 3 4 4 3 3 4 3
31 28 24 21 18 15 14 12 11 10 9 7 6 5 5 4 4 5 6 7 8 9 9 10 10 9 9 8 8 7 7 7 8 8 8 7 3 3 3 6 4 8 9
27 26 24 21 18 15 14 13 12 10 9 8 6 5 4 4 4 5 5 6 7 7 8 8 9 8 8 6 6 6 5 6 7 8 8 8 7 7 7 6 4 5 6
30 26 23 19 17 15 15 14 12 11 10 8 6 5 4 3 3 4 5 5 5 6 6 7 7 8 8 7 5 5 4 4 5 6 7 7 8 8 8 9 9 9 8
31 27 22 19 18 17 15 14 13 11 10 8 7 5 4 3 3 3 3 4 4 5 5 5 6 6 7 6 5 4 4 5 4 4 5 6 6 6 7 8 9 9 9
32 28 24 21 19 18 16 15 13 12 10 9 7 6 5 3 3 3 2 3 3 3 3 4 5 5 6 6 6 6 6 6 5 4 5 6 7 6 7 8 9 9 9
32 28 25 22 21 19 18 16 14 12 11 9 8 6 5 4 3 2 2 1 1 2 3 4 5 6 6 7 7 7 9 8 7 6 6 7 9 8 8 8 9 10 10
29 28 25 23 22 20 19 17 14 12 11 9 8 7 5 4 4 3 3 2 1 2 4 5 6 7 8 9 9 10 10 7 8 7 7 9 10 9 9 10 11 11 12
28 25 25 22 21 20 18 16 14 12 11 9 9 8 7 6 6 6 4 3 2 3 5 7 8 9 9 9 6 7 4 6 6 6 12 10 10 10 11 12 13 12 14
25 25 24 23 20 19 18 16 14 13 12 11 10 9 9 8 7 7 6 5 5 5 7 9 10 10 10 10 8 4 4 4 6 10 8 11 9 10 14 14 13 15 15
25 24 23 23 20 19 18 17 15 13 12 12 11 11 10 9 8 9 7 7 6 7 9 11 12 12 11 10 11 8 9 10 4 6 9 10 13 15 12 15 18 18 15
21 21 20 23 21 19 18 17 17 15 15 13 12 11 11 10 10 10 8 8 8 9 11 12 13 13 13 12 11 12 11 11 11 9 12 9 11 13 15 17 16 18 17
19 21 19 22 21 21 20 19 17 17 16 15 12 13 11 11 11 11 10 8 9 11 12 12 13 13 14 13 13 13 12 8 8 9 12 13 15 15 15 17 17 17 18
Wind_Direction
170 169 163 162 162 152 145 138 129 120 114 114 118 114 115 128 131 126 111 85 77 12 9 10 346 314 328 327 352 18 357 348 346 2 21 35 25 36 38 34 43 34 73
161 166 162 163 163 157 151 140 139 136 143 146 140 145 146 136 149 230 257 282 288 291 291 288 286 286 286 291 294 292 288 298 314 326 350 8 7 15 32 30 39 38 45
156 161 161 166 168 161 154 150 157 155 160 169 186 207 230 248 249 262 273 280 286 289 291 291 292 292 287 285 282 281 282 287 295 306 328 359 338 330 353 340 4 23 25
154 157 161 171 168 164 155 166 162 169 179 187 193 199 228 244 263 278 310 323 335 339 333 326 322 317 311 305 298 290 286 282 279 279 294 296 320 301 316 329 305 321 336
154 156 169 169 167 164 168 166 168 170 171 166 158 147 78 70 51 38 32 30 19 9 3 355 354 350 342 341 334 324 312 301 292 284 273 268 274 294 299 302 311 303 303
154 161 166 167 163 167 166 169 168 167 159 146 110 103 88 77 74 65 51 38 31 13 6 0 358 352 351 352 345 341 338 340 343 322 290 276 268 274 287 285 298 311 290
155 164 163 167 169 171 169 171 166 160 148 114 97 86 78 70 56 50 46 40 31 18 2 4 359 358 357 355 351 348 350 7 45 38 36 32 315 275 280 292 303 307 312
159 162 166 170 176 172 170 170 165 157 137 122 108 94 83 70 60 55 46 37 29 22 4 6 8 7 6 5 7 10 17 50 53 58 60 54 60 26 351 345 338 316 324
163 166 169 174 170 168 172 174 169 158 143 132 115 104 92 87 70 57 44 36 34 28 15 14 23 20 22 34 46 52 62 77 68 68 69 77 57 8 341 307 312 300 303
169 171 176 179 170 171 175 176 171 158 140 131 112 101 92 83 73 58 46 36 32 32 31 30 34 33 39 45 55 62 69 67 65 70 58 99 90 70 68 66 24 348 319
176 178 179 175 172 176 177 171 166 160 149 139 125 111 95 79 65 55 45 39 35 37 40 36 36 39 44 48 55 62 67 64 64 62 46 154 245 274 280 324 330 323 311
181 181 181 176 176 178 174 173 168 161 153 143 128 114 101 85 71 59 50 45 45 46 47 44 40 42 48 54 46 52 62 63 64 58 44 57 39 28 26 7 341 318 329
180 182 182 180 179 178 174 171 169 160 157 149 136 122 103 85 69 57 51 51 54 55 53 49 48 49 49 56 59 63 66 61 63 53 50 81 104 91 59 50 110 47 344
182 182 184 184 181 177 176 172 169 164 160 154 142 127 109 92 77 66 62 63 64 62 57 54 53 50 48 53 64 67 61 64 57 55 47 69 146 165 200 209 200 257 291
186 183 188 185 183 180 177 175 174 166 163 154 143 130 116 101 79 71 72 71 67 62 58 55 54 49 47 49 57 63 57 51 46 52 42 51 43 347 313 271 241 252 270
184 187 188 188 185 181 180 180 178 171 165 156 149 139 124 105 86 84 83 79 72 66 61 58 53 48 42 44 47 44 40 38 37 45 48 41 42 37 28 24 3 331 336
188 189 191 190 187 189 187 183 179 178 167 162 157 150 138 120 103 97 92 83 76 71 62 52 45 39 33 25 22 18 21 18 22 29 35 37 27 23 20 17 14 11 2
193 189 190 197 196 194 191 187 183 179 172 169 168 161 155 140 125 118 107 91 75 59 48 38 32 28 22 13 358 340 337 338 345 351 7 15 12 6 4 5 5 3 360
193 190 192 197 198 198 195 192 187 181 178 178 176 175 172 161 153 148 121 90 68 50 32 22 17 11 3 355 345 327 316 299 297 313 323 330 339 334 340 346 352 354 351
189 192 193 196 197 196 196 194 192 187 185 185 185 187 184 177 181 172 150 136 86 19 9 360 348 344 343 337 332 318 308 290 281 282 288 298 316 307 317 328 334 338 339
190 191 194 197 197 200 198 197 194 193 194 194 193 198 197 194 196 203 208 221 318 349 337 329 329 333 335 332 325 320 306 286 277 276 283 288 296 291 300 307 319 321 326
195 193 196 197 200 201 201 201 201 197 201 203 203 207 206 209 209 218 227 244 278 305 318 328 334 330 322 320 316 312 284 294 282 273 293 278 281 283 293 298 304 308 313
197 203 198 201 199 203 202 201 202 203 207 210 212 216 216 218 224 233 236 253 277 303 320 321 318 318 316 316 311 283 294 274 293 288 285 286 280 286 296 295 299 303 304
205 207 202 202 205 206 205 204 208 210 213 213 213 220 223 225 231 240 245 263 279 299 308 311 313 312 307 301 303 290 270 265 294 300 302 289 287 293 288 295 299 300 297
204 219 211 213 205 210 213 211 212 213 216 216 219 224 226 231 236 246 252 262 281 298 305 308 307 305 299 293 290 292 290 287 278 266 283 282 296 293 289 295 295 297 296
210 212 220 220 214 213 215 216 218 223 225 220 223 227 228 236 244 251 253 262 283 294 300 301 299 297 295 293 288 286 281 272 274 266 277 288 291 293 286 296 295 295 294